�������l�o���
Date,Time,MP-1(��Sv/h),MP-2(��Sv/h),MP-3(��Sv/h),MP-4(��Sv/h),MP-5(��Sv/h),MP-6(��Sv/h),MP-7(��Sv/h),MP-8(��Sv/h),����,����(m/s),���J
2022/09/19,00:00,0.583,0.842,0.534,1.047,0.740,0.339,0.595,0.558,��,9.3,�L
2022/09/19,00:10,0.584,0.842,0.535,1.047,0.742,0.340,0.597,0.558,��,9.4,�L
2022/09/19,00:20,0.581,0.843,0.535,1.046,0.742,0.340,0.596,0.560,��,8.3,��
2022/09/19,00:30,0.583,0.844,0.536,1.047,0.742,0.340,0.595,0.559,��,7.2,��
2022/09/19,00:40,0.583,0.846,0.536,1.047,0.742,0.340,0.596,0.560,��,6.7,�L
2022/09/19,00:50,0.584,0.843,0.535,1.048,0.743,0.339,0.594,0.560,��,8.7,�L
2022/09/19,01:00,0.582,0.844,0.535,1.047,0.742,0.340,0.595,0.558,��,8.1,�L
2022/09/19,01:10,0.583,0.844,0.535,1.049,0.741,0.340,0.596,0.559,��,9.4,��
2022/09/19,01:20,0.585,0.844,0.536,1.050,0.743,0.340,0.597,0.559,��,8.0,�L
2022/09/19,01:30,0.582,0.844,0.534,1.050,0.744,0.339,0.597,0.560,��쓌,9.3,�L
2022/09/19,01:40,0.583,0.842,0.533,1.047,0.744,0.338,0.596,0.559,��,8.6,�L
2022/09/19,01:50,0.584,0.844,0.534,1.047,0.743,0.339,0.596,0.559,��,7.9,�L
2022/09/19,02:00,0.583,0.841,0.535,1.048,0.742,0.341,0.595,0.558,��,8.0,�L
2022/09/19,02:10,0.581,0.842,0.535,1.049,0.740,0.340,0.595,0.558,��,9.8,�L
2022/09/19,02:20,0.582,0.840,0.533,1.048,0.739,0.340,0.594,0.558,��,8.6,�L
2022/09/19,02:30,0.582,0.843,0.535,1.050,0.739,0.339,0.594,0.559,��,7.7,�L
2022/09/19,02:40,0.581,0.840,0.534,1.048,0.740,0.340,0.595,0.557,��,9.5,�L
2022/09/19,02:50,0.582,0.841,0.534,1.045,0.739,0.340,0.594,0.557,��,9.9,��
2022/09/19,03:00,0.579,0.840,0.534,1.049,0.739,0.340,0.596,0.558,��,10.6,�L
2022/09/19,03:10,0.580,0.843,0.533,1.046,0.739,0.341,0.595,0.557,��,11.0,�L
2022/09/19,03:20,0.583,0.841,0.535,1.047,0.740,0.339,0.594,0.557,��,8.8,�L
2022/09/19,03:30,0.582,0.842,0.533,1.045,0.739,0.338,0.595,0.557,��,10.3,�L
2022/09/19,03:40,0.582,0.842,0.534,1.046,0.742,0.340,0.596,0.558,��,10.8,�L
2022/09/19,03:50,0.582,0.842,0.534,1.046,0.741,0.338,0.596,0.557,��,12.7,�L
2022/09/19,04:00,0.583,0.843,0.534,1.048,0.741,0.340,0.596,0.557,��,11.1,�L
2022/09/19,04:10,0.583,0.842,0.533,1.047,0.741,0.340,0.595,0.558,��,10.2,��
2022/09/19,04:20,0.582,0.842,0.536,1.048,0.740,0.340,0.595,0.558,��,11.4,�L
2022/09/19,04:30,0.583,0.842,0.533,1.048,0.742,0.339,0.596,0.557,��,10.7,�L
2022/09/19,04:40,0.582,0.841,0.534,1.049,0.738,0.339,0.596,0.557,��,9.4,�L
2022/09/19,04:50,0.582,0.837,0.534,1.047,0.739,0.340,0.595,0.557,��,8.2,�L
2022/09/19,05:00,0.582,0.841,0.531,1.047,0.740,0.339,0.596,0.559,��,11.1,�L
2022/09/19,05:10,0.581,0.840,0.533,1.049,0.737,0.340,0.595,0.557,��,8.5,�L
2022/09/19,05:20,0.581,0.840,0.532,1.046,0.739,0.340,0.596,0.556,��,7.0,�L
2022/09/19,05:30,0.583,0.838,0.531,1.044,0.738,0.339,0.596,0.557,��,8.1,�L
2022/09/19,05:40,0.581,0.841,0.533,1.045,0.737,0.339,0.594,0.557,��,9.4,�L
2022/09/19,05:50,0.581,0.838,0.535,1.046,0.736,0.339,0.595,0.556,��,7.7,�L
2022/09/19,06:00,0.581,0.837,0.531,1.045,0.737,0.339,0.594,0.557,��,7.3,�L
2022/09/19,06:10,0.582,0.841,0.531,1.043,0.737,0.339,0.595,0.556,��,8.3,�L
2022/09/19,06:20,0.583,0.839,0.531,1.046,0.735,0.339,0.595,0.557,��,10.7,�L
2022/09/19,06:30,0.581,0.839,0.532,1.047,0.738,0.339,0.594,0.556,��,10.2,�L
2022/09/19,06:40,0.581,0.837,0.533,1.047,0.737,0.339,0.592,0.558,��,8.4,�L
2022/09/19,06:50,0.579,0.836,0.532,1.046,0.736,0.338,0.593,0.557,��,10.2,�L
2022/09/19,07:00,0.578,0.835,0.531,1.044,0.735,0.340,0.592,0.555,��,11.3,�L
2022/09/19,07:10,0.579,0.835,0.530,1.045,0.734,0.339,0.591,0.554,��쓌,12.0,�L
2022/09/19,07:20,0.578,0.836,0.528,1.045,0.733,0.339,0.592,0.555,��,11.7,�L
2022/09/19,07:30,0.579,0.834,0.530,1.042,0.733,0.339,0.592,0.555,��,9.2,�L
2022/09/19,07:40,0.578,0.837,0.531,1.042,0.734,0.338,0.591,0.554,��,9.7,��
2022/09/19,07:50,0.580,0.836,0.532,1.042,0.734,0.339,0.593,0.556,��,9.8,�L
2022/09/19,08:00,0.581,0.837,0.530,1.046,0.736,0.339,0.592,0.554,��,8.6,�L
2022/09/19,08:10,0.582,0.837,0.530,1.044,0.736,0.338,0.594,0.554,��,9.5,�L
2022/09/19,08:20,0.579,0.838,0.530,1.044,0.734,0.338,0.592,0.555,��,9.4,�L
2022/09/19,08:30,0.579,0.838,0.534,1.044,0.739,0.339,0.593,0.553,��,8.3,�L
2022/09/19,08:40,0.581,0.838,0.534,1.045,0.738,0.337,0.592,0.554,��,9.6,�L
2022/09/19,08:50,0.581,0.838,0.534,1.043,0.738,0.337,0.593,0.555,��,8.9,�L
2022/09/19,09:00,0.579,0.839,0.533,1.047,0.736,0.340,0.592,0.554,��,9.5,�L
2022/09/19,09:10,0.578,0.835,0.533,1.046,0.737,0.339,0.591,0.554,��,9.7,�L
2022/09/19,09:20,0.578,0.834,0.534,1.046,0.736,0.338,0.590,0.552,��,8.5,�L
2022/09/19,09:30,0.579,0.833,0.532,1.045,0.734,0.339,0.591,0.553,��,8.4,�L
2022/09/19,09:40,0.578,0.834,0.531,1.042,0.737,0.337,0.591,0.553,��,8.9,�L
2022/09/19,09:50,0.578,0.835,0.531,1.044,0.736,0.338,0.591,0.552,��,10.7,�L
2022/09/19,10:00,0.578,0.834,0.531,1.041,0.736,0.339,0.589,0.552,��,9.2,�L
2022/09/19,10:10,0.579,0.836,0.531,1.041,0.735,0.339,0.590,0.553,��,9.9,�L
2022/09/19,10:20,0.578,0.837,0.533,1.045,0.735,0.338,0.591,0.554,��,10.3,�L
2022/09/19,10:30,0.578,0.837,0.531,1.043,0.737,0.339,0.590,0.553,��,9.1,��
2022/09/19,10:40,0.578,0.838,0.533,1.045,0.736,0.338,0.591,0.555,��,9.8,��
2022/09/19,10:50,0.581,0.835,0.531,1.043,0.737,0.338,0.593,0.552,��쓌,10.2,��
2022/09/19,11:00,0.580,0.836,0.532,1.045,0.737,0.339,0.592,0.553,��,12.1,��
2022/09/19,11:10,0.581,0.839,0.534,1.044,0.738,0.338,0.591,0.555,��,10.3,��
2022/09/19,11:20,0.581,0.838,0.533,1.046,0.738,0.340,0.592,0.554,��쓌,10.8,��
2022/09/19,11:30,0.580,0.840,0.533,1.044,0.738,0.339,0.593,0.554,��쓌,10.0,��
2022/09/19,11:40,0.581,0.840,0.532,1.045,0.739,0.341,0.591,0.554,��쓌,11.9,�L
2022/09/19,11:50,0.582,0.842,0.535,1.044,0.739,0.339,0.594,0.554,��쓌,11.7,��
2022/09/19,12:00,0.582,0.841,0.534,1.045,0.739,0.339,0.593,0.556,��쓌,9.7,�L
2022/09/19,12:10,0.581,0.842,0.536,1.043,0.738,0.339,0.595,0.555,��쓌,12.5,�L
2022/09/19,12:20,0.582,0.843,0.536,1.044,0.740,0.340,0.593,0.554,��쓌,13.8,��
2022/09/19,12:30,0.583,0.842,0.535,1.045,0.741,0.341,0.593,0.554,��,12.1,��
2022/09/19,12:40,0.583,0.844,0.536,1.049,0.741,0.339,0.594,0.556,��쓌,10.6,��
2022/09/19,12:50,0.584,0.845,0.536,1.047,0.741,0.339,0.594,0.556,��쓌,13.0,��
2022/09/19,13:00,0.583,0.844,0.536,1.047,0.741,0.340,0.594,0.556,��,12.2,��
2022/09/19,13:10,0.584,0.844,0.536,1.047,0.742,0.339,0.595,0.557,��,12.4,��
2022/09/19,13:20,0.584,0.847,0.538,1.047,0.743,0.341,0.594,0.556,��,11.1,��
2022/09/19,13:30,0.584,0.845,0.538,1.050,0.744,0.341,0.595,0.556,��쓌,11.0,�L
2022/09/19,13:40,0.583,0.846,0.537,1.048,0.742,0.339,0.594,0.556,��,11.4,�L
2022/09/19,13:50,0.584,0.845,0.537,1.048,0.743,0.341,0.595,0.556,��쓌,10.6,�L
2022/09/19,14:00,0.583,0.847,0.538,1.048,0.744,0.341,0.594,0.557,��,13.5,�L
2022/09/19,14:10,0.585,0.847,0.537,1.048,0.745,0.341,0.595,0.555,��쓌,14.6,�L
2022/09/19,14:20,0.583,0.847,0.537,1.047,0.744,0.341,0.595,0.556,��,12.2,�L
2022/09/19,14:30,0.584,0.846,0.538,1.048,0.745,0.342,0.595,0.557,��,15.2,�L
2022/09/19,14:40,0.586,0.846,0.539,1.049,0.745,0.341,0.595,0.558,��,12.5,��
2022/09/19,14:50,0.584,0.848,0.537,1.050,0.746,0.342,0.594,0.557,��,14.4,�L
2022/09/19,15:00,0.585,0.847,0.538,1.050,0.746,0.343,0.594,0.556,��,10.5,��
2022/09/19,15:10,0.585,0.848,0.538,1.047,0.746,0.341,0.595,0.556,��,9.7,��
2022/09/19,15:20,0.585,0.849,0.538,1.049,0.744,0.341,0.594,0.557,��,13.0,��
2022/09/19,15:30,0.584,0.847,0.537,1.047,0.745,0.343,0.594,0.556,��,15.2,��
2022/09/19,15:40,0.585,0.846,0.538,1.049,0.745,0.343,0.596,0.559,��,12.2,��
2022/09/19,15:50,0.586,0.847,0.540,1.049,0.744,0.344,0.594,0.555,��,11.8,�L
2022/09/19,16:00,0.582,0.840,0.535,1.045,0.736,0.342,0.591,0.555,��,10.3,�L
2022/09/19,16:10,0.575,0.830,0.530,1.037,0.732,0.338,0.590,0.554,��,12.2,�L
2022/09/19,16:20,0.577,0.832,0.530,1.038,0.732,0.340,0.589,0.553,��,11.4,�L
2022/09/19,16:30,0.577,0.829,0.531,1.037,0.732,0.338,0.589,0.553,��,11.3,�L
2022/09/19,16:40,0.576,0.831,0.530,1.035,0.731,0.340,0.590,0.553,��쐼,10.5,�L
2022/09/19,16:50,0.576,0.828,0.528,1.034,0.730,0.338,0.590,0.553,��,11.7,�L
2022/09/19,17:00,0.577,0.831,0.528,1.038,0.729,0.339,0.590,0.554,��,12.1,��
2022/09/19,17:10,0.576,0.831,0.531,1.035,0.731,0.337,0.589,0.554,��,12.4,�L
2022/09/19,17:20,0.578,0.832,0.528,1.035,0.729,0.338,0.590,0.551,��,10.5,�L
2022/09/19,17:30,0.573,0.818,0.525,1.027,0.719,0.336,0.588,0.552,��,8.6,�L
2022/09/19,17:40,0.568,0.815,0.521,1.024,0.716,0.334,0.588,0.551,��쓌,12.1,��
2022/09/19,17:50,0.572,0.820,0.524,1.024,0.719,0.334,0.587,0.553,��,14.2,��
2022/09/19,18:00,0.572,0.820,0.526,1.023,0.722,0.336,0.589,0.553,��,13.9,��
2022/09/19,18:10,0.572,0.820,0.524,1.026,0.721,0.336,0.587,0.551,��,13.9,��
2022/09/19,18:20,0.574,0.820,0.524,1.023,0.721,0.336,0.589,0.553,��,13.1,�L
2022/09/19,18:30,0.573,0.823,0.523,1.027,0.723,0.336,0.589,0.552,��,12.5,�L
2022/09/19,18:40,0.572,0.818,0.522,1.022,0.716,0.337,0.587,0.551,��,14.4,�L
2022/09/19,18:50,0.570,0.814,0.521,1.020,0.715,0.333,0.586,0.552,��,11.0,�L
2022/09/19,19:00,0.570,0.818,0.523,1.021,0.718,0.333,0.587,0.552,��,13.5,��
2022/09/19,19:10,0.571,0.820,0.523,1.020,0.718,0.336,0.586,0.553,��,11.0,��
2022/09/19,19:20,0.570,0.819,0.523,1.021,0.718,0.336,0.586,0.553,��,9.8,��
2022/09/19,19:30,0.573,0.818,0.523,1.021,0.719,0.336,0.585,0.551,��,11.6,��
2022/09/19,19:40,0.571,0.819,0.525,1.022,0.720,0.337,0.588,0.553,��,10.8,��
2022/09/19,19:50,0.574,0.819,0.523,1.021,0.720,0.335,0.587,0.554,��,11.6,��
2022/09/19,20:00,0.572,0.820,0.524,1.021,0.721,0.336,0.586,0.553,��,12.2,�L
2022/09/19,20:10,0.573,0.821,0.524,1.024,0.721,0.335,0.588,0.554,��,12.1,��
2022/09/19,20:20,0.572,0.822,0.525,1.024,0.721,0.337,0.586,0.554,��,12.4,�L
2022/09/19,20:30,0.573,0.822,0.525,1.024,0.720,0.335,0.588,0.555,��,13.0,�L
2022/09/19,20:40,0.573,0.821,0.524,1.022,0.720,0.336,0.587,0.555,��,12.5,�L
2022/09/19,20:50,0.573,0.822,0.526,1.023,0.720,0.336,0.588,0.554,��,14.6,�L
2022/09/19,21:00,0.574,0.823,0.526,1.023,0.723,0.336,0.588,0.553,��,12.5,�L
2022/09/19,21:10,0.575,0.823,0.525,1.022,0.724,0.337,0.588,0.555,��,16.1,�L
2022/09/19,21:20,0.574,0.821,0.526,1.024,0.723,0.337,0.588,0.554,��,14.6,�L
2022/09/19,21:30,0.574,0.820,0.526,1.023,0.723,0.336,0.590,0.555,��,13.1,�L
2022/09/19,21:40,0.575,0.823,0.528,1.023,0.724,0.336,0.590,0.553,��,14.9,�L
2022/09/19,21:50,0.574,0.823,0.528,1.025,0.725,0.336,0.589,0.554,��,12.5,�L
2022/09/19,22:00,0.575,0.823,0.527,1.025,0.724,0.337,0.589,0.555,��,11.3,�L
2022/09/19,22:10,0.575,0.826,0.526,1.025,0.725,0.336,0.591,0.555,��,12.8,�L
2022/09/19,22:20,0.575,0.826,0.528,1.022,0.724,0.337,0.590,0.554,��,11.7,�L
2022/09/19,22:30,0.576,0.822,0.529,1.023,0.725,0.337,0.588,0.553,��,12.8,�L
2022/09/19,22:40,0.574,0.825,0.527,1.025,0.725,0.337,0.587,0.553,��,13.6,�L
2022/09/19,22:50,0.574,0.824,0.526,1.024,0.722,0.335,0.588,0.552,��,11.4,�L
2022/09/19,23:00,0.574,0.822,0.527,1.024,0.724,0.336,0.587,0.554,��,11.3,�L
2022/09/19,23:10,0.576,0.823,0.525,1.026,0.723,0.336,0.588,0.553,��,12.2,�L
2022/09/19,23:20,0.574,0.823,0.527,1.025,0.724,0.337,0.587,0.552,��,9.8,��
2022/09/19,23:30,0.576,0.823,0.526,1.024,0.725,0.335,0.588,0.552,��,13.8,�L
2022/09/19,23:40,0.574,0.824,0.528,1.024,0.725,0.337,0.588,0.554,��,10.9,�L
2022/09/19,23:50,0.574,0.823,0.528,1.024,0.724,0.335,0.587,0.553,��,10.5,�L
